�������l�o���
Date,Time,MP-1(��Sv/h),MP-2(��Sv/h),MP-3(��Sv/h),MP-4(��Sv/h),MP-5(��Sv/h),MP-6(��Sv/h),MP-7(��Sv/h),MP-8(��Sv/h),����,����(m/s),���J
2017/11/22,00:00,0.924,1.505,0.955,1.787,1.224,0.497,0.903,0.855,���쐼,2.3,��
2017/11/22,00:10,0.926,1.506,0.955,1.788,1.227,0.498,0.900,0.853,���쐼,2.8,��
2017/11/22,00:20,0.926,1.503,0.953,1.788,1.227,0.498,0.901,0.854,���쐼,3.1,��
2017/11/22,00:30,0.926,1.505,0.954,1.786,1.228,0.498,0.902,0.854,���쐼,2.8,��
2017/11/22,00:40,0.926,1.504,0.954,1.788,1.228,0.499,0.902,0.855,�쐼,2.3,��
2017/11/22,00:50,0.928,1.508,0.954,1.787,1.229,0.498,0.900,0.853,���쐼,2.5,��
2017/11/22,01:00,0.927,1.504,0.954,1.789,1.225,0.499,0.903,0.853,�쐼,2.5,��
2017/11/22,01:10,0.925,1.505,0.954,1.788,1.225,0.499,0.901,0.852,�쐼,2.5,��
2017/11/22,01:20,0.927,1.504,0.952,1.787,1.225,0.498,0.903,0.854,�쐼,2.8,��
2017/11/22,01:30,0.926,1.504,0.954,1.787,1.227,0.498,0.901,0.855,�쐼,3.0,��
2017/11/22,01:40,0.926,1.505,0.952,1.789,1.226,0.499,0.900,0.853,�쐼,3.1,��
2017/11/22,01:50,0.926,1.503,0.956,1.790,1.225,0.498,0.901,0.854,�쐼,2.9,��
2017/11/22,02:00,0.927,1.502,0.952,1.785,1.226,0.498,0.901,0.853,��쐼,3.2,��
2017/11/22,02:10,0.926,1.504,0.953,1.786,1.225,0.499,0.902,0.852,��쐼,3.3,��
2017/11/22,02:20,0.926,1.504,0.953,1.789,1.225,0.498,0.900,0.854,��쐼,2.9,��
2017/11/22,02:30,0.927,1.501,0.954,1.787,1.225,0.499,0.902,0.855,��쐼,3.0,��
2017/11/22,02:40,0.927,1.505,0.952,1.788,1.225,0.497,0.902,0.853,��쐼,3.2,��
2017/11/22,02:50,0.925,1.504,0.953,1.788,1.227,0.499,0.902,0.853,��쐼,4.0,��
2017/11/22,03:00,0.926,1.505,0.953,1.787,1.225,0.498,0.900,0.852,��쐼,4.2,��
2017/11/22,03:10,0.925,1.505,0.952,1.785,1.224,0.499,0.901,0.855,��쐼,4.4,��
2017/11/22,03:20,0.925,1.506,0.954,1.788,1.228,0.498,0.903,0.852,��쐼,4.8,��
2017/11/22,03:30,0.927,1.504,0.953,1.792,1.223,0.497,0.902,0.855,��쐼,5.1,��
2017/11/22,03:40,0.926,1.504,0.953,1.788,1.224,0.498,0.901,0.854,��쐼,4.7,��
2017/11/22,03:50,0.927,1.504,0.953,1.786,1.224,0.500,0.900,0.855,��쐼,4.7,��
2017/11/22,04:00,0.927,1.503,0.953,1.787,1.224,0.498,0.901,0.854,��쐼,4.8,��
2017/11/22,04:10,0.926,1.504,0.953,1.788,1.223,0.499,0.901,0.855,��쐼,5.5,��
2017/11/22,04:20,0.925,1.502,0.954,1.786,1.225,0.498,0.902,0.855,��쐼,5.4,��
2017/11/22,04:30,0.927,1.501,0.951,1.784,1.224,0.499,0.902,0.853,��쐼,5.6,��
2017/11/22,04:40,0.925,1.502,0.954,1.785,1.225,0.498,0.900,0.853,��쐼,5.8,��
2017/11/22,04:50,0.926,1.503,0.953,1.787,1.225,0.498,0.901,0.855,��쐼,5.6,��
2017/11/22,05:00,0.926,1.502,0.952,1.788,1.226,0.499,0.902,0.854,��쐼,5.1,��
2017/11/22,05:10,0.926,1.503,0.952,1.786,1.225,0.498,0.901,0.854,��,5.3,��
2017/11/22,05:20,0.925,1.504,0.953,1.788,1.225,0.499,0.901,0.856,��쐼,4.7,��
2017/11/22,05:30,0.925,1.505,0.955,1.786,1.225,0.498,0.903,0.855,��쐼,4.4,��
2017/11/22,05:40,0.926,1.505,0.954,1.789,1.223,0.497,0.901,0.853,��쐼,4.3,��
2017/11/22,05:50,0.927,1.502,0.954,1.789,1.223,0.498,0.902,0.853,��쐼,4.6,��
2017/11/22,06:00,0.926,1.504,0.953,1.789,1.226,0.499,0.901,0.853,��쐼,5.5,��
2017/11/22,06:10,0.927,1.502,0.951,1.784,1.223,0.498,0.902,0.855,��,5.9,��
2017/11/22,06:20,0.926,1.503,0.952,1.786,1.223,0.498,0.903,0.855,��,5.7,��
2017/11/22,06:30,0.926,1.502,0.952,1.786,1.225,0.499,0.901,0.855,��,6.2,��
2017/11/22,06:40,0.926,1.502,0.954,1.787,1.225,0.499,0.902,0.855,��,5.8,��
2017/11/22,06:50,0.925,1.504,0.953,1.788,1.226,0.498,0.901,0.854,��,6.2,��
2017/11/22,07:00,0.924,1.504,0.956,1.787,1.222,0.498,0.902,0.855,��,7.3,��
2017/11/22,07:10,0.926,1.505,0.953,1.787,1.226,0.497,0.902,0.854,��,7.5,��
2017/11/22,07:20,0.927,1.506,0.953,1.787,1.226,0.498,0.902,0.855,��,7.5,��
2017/11/22,07:30,0.927,1.505,0.951,1.786,1.224,0.498,0.903,0.853,��,6.6,��
2017/11/22,07:40,0.925,1.504,0.953,1.788,1.224,0.497,0.902,0.855,��쐼,6.1,��
2017/11/22,07:50,0.927,1.506,0.953,1.788,1.224,0.498,0.902,0.854,��쐼,5.4,��
2017/11/22,08:00,0.928,1.504,0.955,1.790,1.223,0.498,0.903,0.855,��쐼,6.3,��
2017/11/22,08:10,0.930,1.507,0.959,1.790,1.227,0.499,0.903,0.856,��,7.3,��
2017/11/22,08:20,0.930,1.506,0.954,1.791,1.226,0.500,0.901,0.856,��,7.1,��
2017/11/22,08:30,0.930,1.504,0.957,1.790,1.224,0.499,0.904,0.856,��,6.0,��
2017/11/22,08:40,0.931,1.507,0.956,1.791,1.227,0.500,0.906,0.855,��,5.6,��
2017/11/22,08:50,0.929,1.506,0.958,1.790,1.227,0.500,0.902,0.857,��,5.5,��
2017/11/22,09:00,0.931,1.506,0.957,1.789,1.228,0.498,0.905,0.855,��,4.6,��
2017/11/22,09:10,0.930,1.503,0.956,1.792,1.227,0.499,0.904,0.856,��,5.3,��
2017/11/22,09:20,0.930,1.504,0.956,1.790,1.226,0.501,0.905,0.856,��,5.7,��
2017/11/22,09:30,0.931,1.508,0.957,1.790,1.227,0.500,0.903,0.855,��쓌,6.8,��
2017/11/22,09:40,0.933,1.501,0.957,1.791,1.226,0.502,0.905,0.857,��쓌,7.5,��
2017/11/22,09:50,0.932,1.503,0.957,1.792,1.227,0.503,0.904,0.856,��쓌,7.5,��
2017/11/22,10:00,0.932,1.504,0.956,1.795,1.227,0.502,0.904,0.858,��쓌,7.5,��
2017/11/22,10:10,0.933,1.503,0.956,1.793,1.226,0.503,0.904,0.858,��쓌,7.1,��
2017/11/22,10:20,0.934,1.502,0.957,1.791,1.229,0.500,0.903,0.857,��쓌,8.3,��
2017/11/22,10:30,0.934,1.503,0.959,1.795,1.228,0.503,0.905,0.857,��쓌,8.6,��
2017/11/22,10:40,0.935,1.508,0.957,1.794,1.225,0.502,0.904,0.857,��쓌,7.4,��
2017/11/22,10:50,0.934,1.504,0.957,1.795,1.229,0.502,0.905,0.857,��쓌,9.1,��
2017/11/22,11:00,0.932,1.507,0.959,1.793,1.229,0.502,0.904,0.860,��쓌,8.9,��
2017/11/22,11:10,0.927,1.505,0.959,1.793,1.229,0.502,0.905,0.858,��쓌,8.1,��
2017/11/22,11:20,0.933,1.506,0.962,1.795,1.230,0.502,0.903,0.856,��쓌,8.5,��
2017/11/22,11:30,0.933,1.508,0.959,1.795,1.229,0.504,0.905,0.859,��쓌,9.1,��
2017/11/22,11:40,0.933,1.506,0.959,1.792,1.225,0.503,0.903,0.858,��쓌,7.8,��
2017/11/22,11:50,0.933,1.506,0.961,1.793,1.230,0.504,0.904,0.857,��쓌,8.0,��
2017/11/22,12:00,0.934,1.504,0.960,1.794,1.230,0.503,0.905,0.859,��쓌,7.2,��
2017/11/22,12:10,0.934,1.508,0.961,1.796,1.230,0.504,0.904,0.859,��쓌,7.8,��
2017/11/22,12:20,0.933,1.512,0.961,1.795,1.231,0.506,0.905,0.859,��쓌,7.3,��
2017/11/22,12:30,0.934,1.511,0.961,1.797,1.229,0.504,0.907,0.859,��쓌,8.0,��
2017/11/22,12:40,0.935,1.510,0.963,1.795,1.231,0.504,0.905,0.858,��쓌,7.9,��
2017/11/22,12:50,0.935,1.505,0.962,1.796,1.229,0.505,0.906,0.859,��쓌,7.4,��
2017/11/22,13:00,0.937,1.511,0.960,1.798,1.232,0.503,0.906,0.858,��쓌,7.5,��
2017/11/22,13:10,0.939,1.511,0.963,1.796,1.229,0.504,0.905,0.858,��쓌,6.7,��
2017/11/22,13:20,0.935,1.508,0.961,1.793,1.229,0.506,0.906,0.858,��쓌,6.8,��
2017/11/22,13:30,0.936,1.511,0.961,1.798,1.232,0.505,0.904,0.856,��쓌,6.4,��
2017/11/22,13:40,0.936,1.511,0.962,1.801,1.232,0.507,0.907,0.859,��쓌,7.0,��
2017/11/22,13:50,0.934,1.507,0.958,1.799,1.228,0.506,0.905,0.856,��쓌,6.4,��
2017/11/22,14:00,0.934,1.509,0.961,1.796,1.232,0.504,0.905,0.859,��쓌,6.8,��
2017/11/22,14:10,0.935,1.508,0.964,1.797,1.230,0.504,0.906,0.858,��쓌,7.6,��
2017/11/22,14:20,0.936,1.507,0.962,1.798,1.228,0.490,0.907,0.858,��쓌,8.0,��
2017/11/22,14:30,0.936,1.510,0.962,1.798,1.229,0.503,0.905,0.858,��,6.5,��
2017/11/22,14:40,0.937,1.507,0.962,1.798,1.232,0.503,0.906,0.859,��,7.2,��
2017/11/22,14:50,0.937,1.508,0.962,1.800,1.232,0.502,0.906,0.858,��,7.7,��
2017/11/22,15:00,0.935,1.511,0.964,1.795,1.231,0.506,0.907,0.859,��,8.2,��
2017/11/22,15:10,0.936,1.515,0.962,1.796,1.229,0.506,0.907,0.859,��,9.1,��
2017/11/22,15:20,0.937,1.514,0.963,1.793,1.230,0.505,0.905,0.857,��,8.4,��
2017/11/22,15:30,0.936,1.514,0.963,1.797,1.230,0.506,0.906,0.859,��,9.3,��
2017/11/22,15:40,0.937,1.515,0.961,1.799,1.235,0.506,0.908,0.859,��,7.6,��
2017/11/22,15:50,0.936,1.515,0.963,1.797,1.232,0.504,0.906,0.858,��,7.3,��
2017/11/22,16:00,0.938,1.515,0.960,1.796,1.234,0.505,0.906,0.858,��쐼,7.9,��
2017/11/22,16:10,0.933,1.513,0.964,1.796,1.235,0.504,0.906,0.860,��쐼,7.6,��
2017/11/22,16:20,0.936,1.515,0.963,1.794,1.235,0.506,0.907,0.859,��쐼,7.7,��
2017/11/22,16:30,0.935,1.517,0.962,1.798,1.233,0.505,0.907,0.859,��쐼,7.7,��
2017/11/22,16:40,0.932,1.514,0.961,1.798,1.234,0.506,0.908,0.859,��쐼,7.3,��
2017/11/22,16:50,0.934,1.517,0.961,1.799,1.232,0.506,0.906,0.859,��쐼,6.4,��
2017/11/22,17:00,0.934,1.517,0.964,1.797,1.233,0.507,0.908,0.858,��쐼,6.6,��
2017/11/22,17:10,0.933,1.515,0.961,1.796,1.233,0.504,0.908,0.859,��쐼,5.3,��
2017/11/22,17:20,0.934,1.516,0.963,1.793,1.235,0.504,0.907,0.859,�쐼,3.2,��
2017/11/22,17:30,0.933,1.514,0.962,1.795,1.233,0.504,0.906,0.859,���쐼,3.4,��
2017/11/22,17:40,0.935,1.517,0.963,1.795,1.232,0.507,0.909,0.858,���쐼,3.4,��
2017/11/22,17:50,0.932,1.514,0.964,1.798,1.233,0.506,0.909,0.858,���쐼,3.8,��
2017/11/22,18:00,0.933,1.515,0.964,1.797,1.230,0.506,0.907,0.859,�쐼,3.4,��
2017/11/22,18:10,0.933,1.514,0.961,1.796,1.234,0.506,0.910,0.859,�쐼,3.0,��
2017/11/22,18:20,0.932,1.514,0.962,1.796,1.234,0.506,0.908,0.859,��쐼,2.9,��
2017/11/22,18:30,0.936,1.514,0.963,1.797,1.234,0.505,0.908,0.860,��,3.4,��
2017/11/22,18:40,0.933,1.512,0.962,1.794,1.233,0.507,0.909,0.859,��,3.7,��
2017/11/22,18:50,0.934,1.515,0.963,1.794,1.234,0.506,0.908,0.859,��,4.1,��
2017/11/22,19:00,0.933,1.511,0.962,1.797,1.231,0.505,0.908,0.858,��,4.4,�L
2017/11/22,19:10,0.932,1.512,0.963,1.797,1.233,0.506,0.907,0.860,��,4.8,�L
2017/11/22,19:20,0.936,1.511,0.963,1.794,1.235,0.505,0.908,0.859,��,5.2,�L
2017/11/22,19:30,0.936,1.514,0.961,1.795,1.233,0.505,0.906,0.859,��,4.1,�L
2017/11/22,19:40,0.934,1.511,0.962,1.793,1.234,0.505,0.907,0.857,��,4.3,��
2017/11/22,19:50,0.936,1.510,0.964,1.797,1.234,0.505,0.907,0.858,��,4.2,��
2017/11/22,20:00,0.935,1.510,0.962,1.796,1.233,0.505,0.909,0.857,��쐼,2.6,��
2017/11/22,20:10,0.936,1.512,0.963,1.796,1.232,0.504,0.906,0.857,��쓌,2.3,�L
2017/11/22,20:20,0.936,1.509,0.961,1.796,1.234,0.505,0.907,0.858,��쓌,1.9,�L
2017/11/22,20:30,0.936,1.512,0.961,1.795,1.234,0.506,0.907,0.860,��쓌,2.9,�L
2017/11/22,20:40,0.932,1.513,0.963,1.795,1.234,0.504,0.909,0.859,��,4.0,�L
2017/11/22,20:50,0.934,1.514,0.962,1.794,1.230,0.505,0.910,0.858,��,3.9,�L
2017/11/22,21:00,0.935,1.513,0.962,1.797,1.232,0.504,0.907,0.859,��,3.2,�L
2017/11/22,21:10,0.934,1.513,0.961,1.796,1.232,0.504,0.906,0.857,��,3.4,�L
2017/11/22,21:20,0.934,1.510,0.964,1.793,1.233,0.504,0.908,0.858,��쓌,3.4,�L
2017/11/22,21:30,0.936,1.511,0.963,1.793,1.228,0.505,0.908,0.858,��쓌,4.1,�L
2017/11/22,21:40,0.933,1.512,0.962,1.796,1.229,0.503,0.908,0.858,��쓌,4.3,�L
2017/11/22,21:50,0.934,1.508,0.960,1.793,1.229,0.504,0.905,0.857,��쓌,4.3,�L
2017/11/22,22:00,0.931,1.506,0.958,1.792,1.226,0.503,0.904,0.857,��,4.2,�L
2017/11/22,22:10,0.929,1.502,0.961,1.791,1.227,0.504,0.906,0.858,��,4.3,�L
2017/11/22,22:20,0.931,1.500,0.961,1.792,1.227,0.504,0.905,0.857,��쓌,5.2,�L
2017/11/22,22:30,0.931,1.502,0.960,1.790,1.225,0.504,0.905,0.855,��,4.3,�L
2017/11/22,22:40,0.928,1.500,0.957,1.786,1.226,0.505,0.904,0.857,��,4.0,�L
2017/11/22,22:50,0.929,1.497,0.959,1.788,1.226,0.505,0.905,0.857,��,3.4,�L
2017/11/22,23:00,0.928,1.499,0.958,1.789,1.223,0.505,0.903,0.856,��쐼,3.6,�L
2017/11/22,23:10,0.927,1.497,0.955,1.785,1.224,0.504,0.906,0.856,��쐼,2.3,�L
2017/11/22,23:20,0.924,1.495,0.955,1.787,1.222,0.504,0.905,0.855,�쐼,2.0,�L
2017/11/22,23:30,0.924,1.496,0.957,1.784,1.219,0.504,0.905,0.857,��,1.7,�L
2017/11/22,23:40,0.926,1.496,0.955,1.783,1.221,0.503,0.904,0.856,��쓌,1.7,�L
2017/11/22,23:50,0.928,1.497,0.956,1.784,1.220,0.504,0.905,0.855,��쓌,2.2,�L
